Temperature
7 7 6 6 6 6 5 5 4 4 4 4 4 4 4 4 4 3 3 3 3 3 3 3 2 2 2 2 2 2 2 2 2 2 3 3 3 3
7 6 6 6 5 5 5 4 4 3 3 4 3 3 3 3 3 2 2 2 2 2 2 2 2 1 2 2 1 2 2 2 2 2 2 2 2 2
6 6 6 5 5 5 4 4 4 3 3 3 3 3 3 2 2 2 2 2 2 2 1 1 1 1 1 1 1 1 1 1 1 1 1 1 1 2
6 5 5 5 5 4 4 4 3 3 2 2 3 2 2 2 2 2 1 1 1 1 1 1 1 1 1 1 1 0 0 0 0 1 1 1 1 1
5 5 5 4 4 4 3 3 3 2 2 2 2 2 1 1 1 1 1 1 1 0 0 0 0 0 0 0 0 0 -0 -0 -0 0 0 0 0 0
4 4 4 4 3 3 2 2 2 2 1 1 1 1 1 1 0 0 1 1 0 0 0 0 0 -0 -0 -0 -0 -0 -1 -1 -1 -0 -0 -0 -0 -0
4 4 3 3 2 2 2 2 1 1 1 1 0 0 -0 -0 -0 -0 -1 -0 -0 -0 -0 -0 -0 -0 -0 -0 -1 -1 -1 -1 -1 -1 -1 -1 -1 -1
3 3 2 2 2 2 1 1 1 0 0 0 -0 -0 -1 -1 -1 -1 -2 -2 -1 -1 -1 -1 -1 -1 -1 -1 -1 -1 -1 -1 -1 -1 -1 -1 -1 -1
2 2 2 2 1 1 1 1 0 -0 -0 -1 -1 -1 -1 -2 -2 -2 -2 -2 -2 -2 -2 -2 -1 -1 -1 -1 -1 -2 -2 -2 -2 -2 -2 -2 -2 -2
1 1 1 1 1 0 -0 -0 -0 -1 -1 -1 -2 -2 -2 -2 -2 -3 -3 -3 -2 -2 -3 -3 -2 -2 -2 -1 -2 -2 -2 -2 -2 -2 -2 -2 -2 -2
1 0 0 0 -0 -1 -1 -1 -1 -1 -1 -2 -2 -2 -2 -3 -3 -3 -3 -3 -3 -3 -3 -4 -3 -3 -2 -2 -2 -2 -2 -2 -2 -2 -3 -2 -2 -2
-0 -1 -1 -1 -1 -1 -1 -2 -2 -2 -2 -2 -2 -2 -2 -3 -3 -3 -4 -4 -4 -4 -4 -5 -4 -5 -5 -3 -3 -3 -2 -3 -3 -3 -3 -3 -3 -3
-1 -1 -1 -2 -2 -2 -2 -2 -2 -3 -3 -3 -3 -3 -3 -3 -3 -3 -4 -4 -5 -5 -5 -5 -5 -6 -6 -5 -4 -3 -3 -3 -3 -3 -3 -3 -3 -4
-2 -2 -2 -2 -2 -2 -3 -3 -3 -3 -3 -3 -3 -3 -3 -4 -4 -4 -4 -4 -5 -5 -5 -5 -6 -6 -6 -6 -5 -4 -4 -4 -4 -4 -3 -3 -3 -3
-2 -2 -2 -3 -3 -3 -3 -3 -3 -3 -4 -4 -4 -4 -4 -4 -4 -4 -4 -4 -4 -4 -5 -5 -6 -6 -6 -6 -6 -5 -5 -4 -4 -4 -4 -4 -4 -4
-2 -3 -3 -3 -3 -3 -4 -4 -4 -4 -4 -4 -4 -4 -4 -5 -5 -5 -5 -5 -5 -4 -5 -5 -5 -6 -6 -6 -6 -5 -5 -5 -5 -5 -5 -4 -4 -4
-3 -3 -3 -4 -4 -4 -4 -4 -4 -4 -4 -5 -5 -5 -5 -5 -5 -5 -5 -5 -6 -5 -5 -5 -5 -5 -6 -6 -5 -5 -5 -5 -5 -5 -5 -5 -4 -4
-4 -4 -4 -4 -4 -4 -4 -4 -4 -5 -5 -5 -5 -5 -5 -5 -6 -6 -6 -6 -6 -6 -6 -6 -6 -6 -5 -5 -5 -6 -6 -6 -6 -6 -6 -6 -5 -5
-4 -4 -4 -5 -5 -5 -5 -5 -5 -5 -5 -6 -6 -6 -6 -6 -6 -6 -6 -6 -6 -6 -6 -6 -7 -7 -7 -7 -6 -6 -6 -6 -6 -6 -6 -6 -6 -5
-5 -5 -5 -5 -5 -5 -5 -5 -5 -5 -6 -6 -6 -6 -6 -6 -7 -7 -7 -7 -7 -7 -7 -7 -7 -7 -8 -8 -7 -6 -6 -6 -6 -6 -6 -6 -6 -5
-5 -5 -5 -5 -5 -5 -5 -6 -6 -6 -6 -6 -6 -6 -7 -7 -7 -7 -7 -7 -7 -8 -8 -7 -7 -7 -7 -7 -7 -7 -6 -6 -6 -7 -6 -6 -6 -6
-5 -5 -5 -5 -5 -6 -6 -6 -6 -6 -6 -6 -7 -7 -7 -7 -7 -7 -8 -8 -8 -8 -8 -8 -7 -7 -7 -8 -8 -7 -7 -6 -6 -6 -6 -6 -7 -7
-5 -5 -5 -5 -6 -6 -6 -6 -6 -7 -7 -7 -7 -7 -7 -8 -8 -8 -8 -8 -8 -8 -8 -8 -7 -7 -7 -7 -7 -7 -7 -7 -6 -6 -6 -6 -6 -6
Wind_Speed
3 3 2 2 2 2 2 3 3 5 7 5 3 3 5 6 10 10 11 14 16 17 17 17 17 17 18 18 19 19 20 21 21 21 22 22 22 23
2 2 2 2 1 2 2 2 3 4 6 5 4 4 5 7 11 11 11 15 16 17 17 17 17 18 18 19 19 20 20 21 21 21 22 22 22 23
1 2 2 2 2 2 2 2 3 3 7 7 5 4 5 6 8 9 10 11 12 16 18 18 18 18 18 18 19 20 20 21 21 21 21 21 22 22
2 2 2 1 2 2 2 3 3 4 5 8 7 5 5 6 7 8 9 10 11 15 17 17 17 18 18 19 19 19 20 20 20 20 21 22 22 21
2 2 2 2 3 3 3 3 3 4 4 6 7 6 5 5 7 8 8 8 10 13 15 15 17 19 19 19 19 19 19 19 20 21 21 21 21 20
1 2 2 3 3 3 3 4 3 4 4 5 6 6 6 5 5 7 8 6 7 9 11 14 17 18 18 19 18 18 19 19 20 21 20 19 19 20
0 1 2 3 4 4 4 3 3 4 4 5 6 6 6 6 6 6 8 9 8 5 6 9 10 10 12 15 16 18 19 19 19 19 18 18 19 19
1 1 2 2 4 5 6 7 6 5 5 5 6 7 7 7 7 7 7 8 8 4 5 8 6 8 9 10 16 19 19 18 18 18 19 19 19 19
2 2 2 3 5 3 5 7 7 8 8 7 7 7 8 7 7 8 8 8 9 7 7 9 6 8 9 13 19 18 18 17 18 19 19 19 19 19
2 2 3 3 4 4 4 4 4 5 6 5 5 7 7 7 7 7 8 8 9 7 5 7 7 7 9 11 16 17 17 18 19 20 19 19 20 20
2 2 3 3 6 6 4 5 6 6 7 8 9 9 11 12 9 5 6 7 8 6 3 4 6 8 8 7 10 15 17 18 19 20 20 20 20 19
2 3 4 5 6 7 5 5 6 6 5 6 7 8 7 8 9 5 4 6 6 6 3 3 5 5 6 4 5 9 12 16 19 20 20 19 19 13
2 3 3 6 8 8 7 5 7 7 5 5 5 5 5 4 5 5 4 5 6 6 5 4 5 4 5 6 6 6 8 9 11 13 16 18 18 14
3 3 4 7 8 9 7 7 9 7 3 4 4 5 5 5 5 6 7 7 8 9 9 7 5 6 7 9 8 6 6 8 9 9 9 14 16 17
3 4 6 7 7 6 6 8 7 3 3 4 5 5 5 5 6 6 6 7 8 9 9 9 7 7 7 8 8 8 8 7 7 7 8 9 9 9
2 4 5 6 5 5 6 5 3 3 4 4 5 5 5 5 5 5 5 5 5 6 6 8 8 7 7 8 9 10 9 6 7 9 9 9 9 9
3 2 2 3 3 3 3 4 3 3 4 4 4 4 5 5 5 4 4 5 5 6 7 6 7 7 7 8 7 9 9 8 8 9 9 10 9 9
3 2 2 3 3 4 4 4 4 4 4 4 4 4 5 5 5 5 5 5 6 7 7 7 7 6 4 4 7 8 7 7 8 9 8 9 11 10
2 2 2 3 4 4 4 4 5 5 4 4 4 4 4 5 5 5 5 5 6 6 6 6 5 5 7 9 5 5 6 9 9 8 8 8 10 11
2 2 3 3 4 4 4 5 5 4 4 4 4 4 4 5 5 5 5 5 6 7 7 6 5 5 6 7 7 7 10 9 8 9 9 8 8 11
3 3 3 4 4 4 4 5 5 5 5 4 4 4 4 4 5 5 5 8 7 6 7 7 7 10 6 5 6 7 7 10 10 8 9 9 9 8
3 3 4 4 4 4 4 4 5 5 5 4 4 4 4 4 5 5 5 5 6 6 7 7 7 6 4 4 7 9 9 9 11 13 11 8 6 6
3 4 4 4 4 4 4 5 5 5 4 4 4 4 4 4 4 4 5 5 5 6 7 7 6 5 4 5 6 7 9 10 8 8 8 11 12 11
Wind_Direction
192 197 216 230 225 229 216 215 232 285 287 276 276 289 318 316 314 319 314 311 313 313 313 312 310 309 308 308 307 306 306 306 303 300 299 298 297 297
194 188 218 237 237 240 228 235 230 245 273 275 275 287 305 312 313 314 308 311 312 311 311 310 309 308 308 307 306 306 306 306 305 303 300 298 297 297
199 197 226 236 249 261 253 253 253 248 269 285 286 290 289 295 309 310 307 307 309 308 310 310 309 309 309 309 307 306 306 306 306 305 305 304 302 300
211 212 242 255 258 267 263 262 264 259 261 281 292 292 285 290 298 301 310 311 309 305 309 310 310 311 310 310 308 308 307 307 306 305 304 303 301 299
211 221 247 244 267 276 273 270 271 276 264 272 286 289 288 294 303 301 300 300 309 307 308 309 310 310 310 310 309 308 308 307 306 304 303 302 301 299
216 232 251 251 255 262 273 269 273 282 278 279 285 290 290 293 298 303 308 306 306 307 305 307 308 308 308 309 309 309 308 308 307 306 305 304 303 301
242 282 282 283 284 285 283 277 279 282 282 285 287 293 296 306 305 301 303 307 302 291 301 302 304 304 306 307 308 308 308 308 309 310 309 308 305 302
217 288 292 294 300 308 304 297 290 284 280 282 286 290 294 296 298 299 301 308 304 299 303 299 296 295 300 303 305 308 309 310 311 311 310 309 306 303
220 249 285 292 309 298 298 303 300 295 289 282 280 282 285 286 290 292 291 290 287 293 301 293 290 291 297 302 304 306 308 310 312 312 311 310 308 304
236 244 258 275 284 288 291 298 297 299 294 288 270 276 279 280 275 280 284 288 282 279 274 283 293 292 299 298 302 306 310 311 312 312 311 311 310 308
269 268 269 269 280 295 300 296 301 302 307 304 299 298 298 299 298 298 297 300 296 293 269 276 292 302 295 286 298 308 310 311 312 312 312 312 310 309
289 279 282 288 292 301 299 293 298 300 305 308 311 309 308 304 304 294 284 290 294 294 286 292 294 315 307 281 288 303 308 310 311 311 312 313 313 311
277 285 286 297 302 304 305 296 291 301 303 303 304 305 306 302 300 295 279 271 278 276 284 295 292 294 282 298 299 291 295 303 308 306 308 311 313 311
271 278 287 299 304 308 309 305 308 315 310 304 303 302 304 303 301 298 290 278 267 268 276 278 277 287 293 296 296 300 299 300 301 301 304 309 311 309
277 288 300 305 310 311 309 310 314 313 301 299 297 295 296 295 300 301 298 294 287 280 277 272 270 280 281 285 290 296 304 302 297 300 305 307 305 305
301 303 310 312 313 311 312 314 311 294 294 290 294 294 297 300 299 299 304 312 307 299 287 280 270 269 280 279 282 290 295 295 307 308 307 306 305 300
319 326 328 321 315 312 311 309 307 306 303 296 293 298 303 305 304 304 301 305 299 304 310 308 294 276 263 270 282 286 292 295 297 305 311 310 307 305
328 310 303 301 298 299 303 305 303 299 298 297 295 293 298 302 305 307 305 302 300 302 305 310 319 320 310 278 249 274 290 297 304 307 305 307 309 310
322 292 290 291 294 296 295 294 293 294 295 292 292 293 295 300 303 305 308 308 307 307 307 309 316 320 321 319 301 268 292 305 308 309 306 302 303 307
313 292 290 291 292 292 291 293 296 298 295 292 293 293 293 299 303 305 308 308 310 312 314 315 315 311 303 300 298 299 301 298 304 308 310 304 298 299
296 291 289 290 290 289 290 291 293 293 294 295 294 294 295 297 300 302 306 308 312 312 314 315 307 308 297 293 299 303 303 307 309 308 309 310 313 319
289 287 289 286 287 287 289 292 295 295 297 296 296 297 298 297 300 304 306 308 309 307 306 307 310 315 313 307 307 309 314 318 322 325 321 311 308 315
285 287 287 287 285 286 288 290 293 294 295 296 297 298 300 302 301 301 303 304 306 308 312 315 319 316 309 304 306 311 315 321 328 335 332 335 333 323
Height
1501 1501 1501 1501 1500 1500 1499 1498 1497 1492 1488 1487 1487 1485 1484 1482 1479 1477 1474 1471 1469 1465 1462 1459 1457 1454 1451 1449 1446 1444 1441 1439 1436 1434 1433 1431 1429 1427
1497 1497 1496 1496 1496 1495 1495 1494 1492 1490 1485 1482 1481 1480 1478 1476 1474 1471 1468 1466 1463 1459 1456 1453 1450 1448 1445 1442 1440 1437 1434 1432 1429 1427 1425 1423 1421 1419
1492 1492 1492 1491 1491 1491 1490 1489 1487 1486 1482 1477 1476 1474 1472 1470 1468 1465 1463 1459 1456 1453 1450 1447 1444 1442 1439 1436 1433 1430 1427 1425 1422 1419 1417 1415 1413 1411
1488 1488 1487 1487 1486 1485 1485 1483 1482 1480 1478 1473 1470 1469 1467 1465 1462 1459 1457 1454 1451 1448 1445 1442 1439 1435 1432 1429 1426 1423 1420 1418 1415 1412 1409 1407 1404 1403
1483 1483 1482 1482 1481 1480 1479 1478 1476 1475 1473 1470 1465 1464 1461 1459 1456 1454 1451 1448 1445 1442 1439 1436 1433 1430 1426 1423 1420 1417 1414 1411 1408 1405 1402 1399 1397 1395
1479 1479 1478 1477 1476 1475 1474 1473 1471 1470 1468 1465 1462 1459 1456 1454 1451 1448 1444 1442 1439 1436 1433 1430 1427 1424 1420 1417 1414 1411 1407 1404 1401 1398 1395 1392 1389 1387
1474 1474 1473 1472 1471 1471 1469 1468 1466 1464 1462 1460 1457 1454 1451 1449 1446 1443 1439 1435 1432 1430 1426 1424 1421 1417 1414 1411 1408 1404 1401 1398 1395 1391 1388 1385 1383 1380
1469 1468 1468 1468 1467 1465 1464 1463 1462 1460 1457 1455 1452 1449 1446 1444 1442 1439 1435 1430 1425 1425 1421 1417 1415 1411 1408 1405 1402 1399 1395 1392 1389 1385 1382 1379 1376 1374
1465 1464 1463 1463 1462 1460 1458 1457 1456 1454 1453 1451 1447 1444 1442 1440 1437 1434 1431 1427 1423 1419 1415 1410 1408 1405 1402 1399 1396 1393 1389 1386 1383 1379 1376 1373 1369 1367
1461 1460 1459 1458 1457 1456 1454 1452 1450 1449 1447 1445 1443 1440 1437 1435 1432 1429 1426 1421 1418 1415 1412 1405 1401 1398 1395 1393 1390 1387 1384 1380 1377 1373 1370 1366 1363 1360
1456 1456 1455 1454 1453 1452 1450 1448 1445 1443 1442 1440 1438 1435 1433 1430 1428 1424 1420 1417 1412 1409 1407 1402 1396 1392 1388 1386 1384 1381 1378 1374 1371 1367 1364 1360 1357 1354
1452 1451 1451 1450 1449 1448 1446 1443 1440 1438 1436 1434 1432 1430 1427 1425 1422 1420 1416 1413 1408 1404 1402 1399 1394 1390 1382 1378 1377 1375 1372 1369 1365 1362 1358 1355 1351 1348
1448 1447 1446 1446 1444 1443 1441 1439 1437 1435 1432 1429 1427 1424 1422 1419 1417 1415 1412 1409 1406 1402 1399 1396 1391 1387 1384 1375 1370 1369 1367 1363 1359 1356 1353 1349 1346 1343
1444 1443 1442 1441 1440 1438 1436 1434 1432 1430 1427 1425 1422 1419 1417 1414 1412 1410 1408 1405 1402 1399 1396 1393 1388 1384 1379 1373 1367 1363 1361 1358 1355 1350 1347 1343 1340 1337
1441 1440 1439 1437 1435 1433 1431 1429 1428 1425 1423 1420 1418 1415 1413 1410 1408 1405 1403 1400 1397 1395 1392 1388 1385 1380 1376 1371 1365 1360 1356 1352 1350 1346 1342 1338 1334 1330
1437 1435 1434 1433 1431 1429 1427 1425 1423 1421 1419 1416 1414 1411 1409 1406 1404 1401 1398 1394 1391 1389 1387 1384 1380 1376 1371 1367 1363 1358 1354 1350 1345 1342 1337 1333 1329 1326
1433 1431 1430 1428 1426 1425 1423 1421 1419 1417 1415 1413 1410 1407 1405 1402 1400 1397 1394 1391 1387 1384 1380 1379 1375 1372 1368 1364 1359 1355 1351 1346 1342 1338 1333 1327 1323 1321
1429 1427 1426 1424 1423 1421 1419 1417 1415 1413 1411 1409 1406 1404 1401 1398 1396 1393 1391 1387 1384 1380 1377 1374 1370 1366 1362 1359 1357 1352 1347 1343 1339 1335 1331 1324 1318 1315
1426 1424 1422 1421 1419 1418 1416 1414 1412 1410 1407 1405 1403 1400 1398 1395 1392 1390 1387 1384 1381 1377 1374 1371 1368 1364 1359 1354 1351 1350 1346 1340 1335 1331 1327 1322 1316 1311
1422 1421 1419 1418 1416 1414 1412 1410 1408 1406 1404 1402 1399 1397 1395 1392 1389 1387 1384 1381 1378 1375 1371 1369 1366 1363 1359 1355 1349 1346 1344 1339 1333 1328 1323 1319 1314 1310
1418 1417 1416 1414 1413 1411 1409 1407 1405 1403 1401 1399 1396 1394 1391 1389 1386 1384 1381 1379 1376 1372 1369 1366 1364 1362 1358 1353 1348 1343 1340 1338 1334 1328 1322 1317 1311 1307
1415 1414 1413 1411 1409 1408 1406 1404 1402 1400 1397 1395 1393 1391 1388 1386 1384 1381 1379 1376 1373 1370 1367 1364 1362 1359 1355 1351 1346 1341 1337 1334 1331 1327 1323 1318 1314 1308
1412 1411 1409 1408 1406 1404 1402 1400 1398 1396 1394 1392 1390 1388 1386 1383 1381 1379 1376 1374 1371 1368 1365 1362 1359 1356 1353 1350 1346 1341 1336 1332 1327 1323 1320 1317 1314 1310